Location: Garbet
(42.8837°N, 1.2115°E)
Time: 14:36:44
(UTC+00:00)

Cosmos 2227 Rocket - Pass Details

Date: 13 December 2025
Orbit: 838 x 844 km, 71.0° (Epoch: 19 January)

Event Time Altitude Azimuth Distance (km) Brightness Sun altitude
Rises 18:06:49 0° 328° (NNW) 3,401 5.6 -18.6°
Reaches altitude 10° 18:09:24 10° 321° (NW) 2,463 4.9 -19.0°
Maximum altitude 18:14:35 39° 254° (WSW) 1,249 3.6 -20.0°
Drops below altitude 10° 18:19:45 10° 188° (S) 2,451 4.8 -20.9°
Sets 18:22:19 0° 180° (S) 3,382 5.5 -21.3°
